User: anonymous   Login
Location: Houston
(29.7631°N, 95.3631°W)
Time: 18:59:12
(UTC-06:00)
Language:

NUDT-PHONESAT - Orbit

View from above orbital plane
View from above orbital plane
View from above satellite
View from above satellite

Ground track
Ground track

The orbit data is extracted from the following two-line orbital elements,

1 40900U 15049B   19320.56592817  .00002189  00000-0  95170-4 0  9996
2 40900  97.4364 328.4575 0013417  22.9198  95.5707 15.23278073230623
Epoch (UTC): 16 November 2019 13:34:56
Eccentricity: 0.0013417
inclination: 97.4364°
perigee height: 487 km
apogee height: 505 km
right ascension of ascending node: 328.4575°
argument of perigee: 22.9198°
revolutions per day: 15.23278073
mean anomaly at epoch: 95.5707°
orbit number at epoch: 23062

The dashed part of the orbit path shows where the satellite is in the earth's shadow,  

DLR